Time,TemperatureF,DewpointF,PressureIn,WindDirection,WindDirectionDegrees,WindSpeedMPH,WindSpeedGustMPH,Humidity,HourlyPrecipIn,Conditions,Clouds,dailyrainin,SoftwareType,DateUTC
2013-05-27 00:02:00,77.0,65.0,30.14,North,0,0.0,0.0,67,-99.99,,,-99.99,,2013-05-27 04:02:00,
2013-05-27 00:12:00,77.0,65.0,30.14,North,0,0.0,0.0,67,-99.99,,,-99.99,,2013-05-27 04:12:00,
2013-05-27 00:23:00,77.0,65.0,30.14,North,0,0.0,0.0,67,-99.99,,,-99.99,,2013-05-27 04:23:00,
2013-05-27 00:33:00,77.0,66.0,30.14,North,0,0.0,0.0,69,-99.99,,,-99.99,,2013-05-27 04:33:00,
2013-05-27 00:43:00,76.0,66.0,30.14,North,0,0.0,0.0,71,-99.99,,,-99.99,,2013-05-27 04:43:00,
2013-05-27 00:53:00,76.0,66.0,30.14,North,0,0.0,0.0,71,-99.99,,,-99.99,,2013-05-27 04:53:00,
2013-05-27 01:02:00,76.0,65.0,30.14,North,0,0.0,0.0,70,-99.99,,,-99.99,,2013-05-27 05:02:00,
2013-05-27 01:12:00,76.0,65.0,30.14,North,0,0.0,0.0,70,-99.99,,,-99.99,,2013-05-27 05:12:00,
2013-05-27 01:22:00,76.0,63.0,30.14,North,0,0.0,0.0,65,-99.99,,,-99.99,,2013-05-27 05:22:00,
2013-05-27 01:32:00,76.0,64.0,30.14,North,0,0.0,0.0,66,-99.99,,,-99.99,,2013-05-27 05:32:00,
2013-05-27 01:42:00,76.0,64.0,30.14,North,0,0.0,0.0,66,-99.99,,,-99.99,,2013-05-27 05:42:00,
2013-05-27 01:52:00,76.0,64.0,30.13,North,0,0.0,0.0,66,-99.99,,,-99.99,,2013-05-27 05:52:00,
2013-05-27 02:02:00,76.0,66.0,30.12,North,0,0.0,0.0,71,-99.99,,,-99.99,,2013-05-27 06:02:00,
2013-05-27 02:11:00,76.0,66.0,30.12,North,0,0.0,0.0,71,-99.99,,,-99.99,,2013-05-27 06:11:00,
2013-05-27 02:22:00,76.0,64.0,30.12,North,0,0.0,0.0,67,-99.99,,,-99.99,,2013-05-27 06:22:00,
2013-05-27 02:32:00,76.0,66.0,30.12,North,0,0.0,0.0,71,-99.99,,,-99.99,,2013-05-27 06:32:00,
2013-05-27 02:42:00,76.0,65.0,30.11,North,0,0.0,0.0,69,-99.99,,,-99.99,,2013-05-27 06:42:00,
2013-05-27 02:52:00,76.0,65.0,30.11,North,0,0.0,0.0,69,-99.99,,,-99.99,,2013-05-27 06:52:00,
2013-05-27 03:02:00,76.0,64.0,30.11,North,0,0.0,0.0,66,-99.99,,,-99.99,,2013-05-27 07:02:00,
2013-05-27 03:11:00,76.0,63.0,30.10,North,0,0.0,0.0,64,-99.99,,,-99.99,,2013-05-27 07:11:00,
2013-05-27 03:21:00,76.0,63.0,30.10,North,0,0.0,0.0,64,-99.99,,,-99.99,,2013-05-27 07:21:00,
2013-05-27 03:32:00,77.0,66.0,30.09,North,0,0.0,0.0,69,-99.99,,,-99.99,,2013-05-27 07:32:00,
2013-05-27 03:42:00,77.0,66.0,30.09,North,0,0.0,0.0,69,-99.99,,,-99.99,,2013-05-27 07:42:00,
2013-05-27 03:53:00,76.0,65.0,30.09,North,0,0.0,0.0,69,-99.99,,,-99.99,,2013-05-27 07:53:00,
2013-05-27 04:02:00,76.0,64.0,30.09,North,0,0.0,0.0,67,-99.99,,,-99.99,,2013-05-27 08:02:00,
2013-05-27 04:11:00,76.0,64.0,30.09,North,0,0.0,0.0,67,-99.99,,,-99.99,,2013-05-27 08:11:00,
2013-05-27 04:22:00,76.0,65.0,30.09,North,0,0.0,0.0,69,-99.99,,,-99.99,,2013-05-27 08:22:00,
2013-05-27 04:33:00,76.0,65.0,30.09,North,0,0.0,0.0,70,-99.99,,,-99.99,,2013-05-27 08:33:00,
2013-05-27 04:42:00,76.0,67.0,30.08,North,0,0.0,0.0,73,-99.99,,,-99.99,,2013-05-27 08:42:00,
2013-05-27 04:52:00,76.0,67.0,30.08,North,0,0.0,0.0,73,-99.99,,,-99.99,,2013-05-27 08:52:00,
2013-05-27 05:02:00,76.0,66.0,30.08,North,0,0.0,0.0,72,-99.99,,,-99.99,,2013-05-27 09:02:00,
2013-05-27 05:11:00,76.0,66.0,30.08,North,0,0.0,0.0,72,-99.99,,,-99.99,,2013-05-27 09:11:00,
2013-05-27 05:22:00,76.0,66.0,30.08,North,0,0.0,0.0,72,-99.99,,,-99.99,,2013-05-27 09:22:00,
2013-05-27 05:33:00,76.0,66.0,30.08,North,0,0.0,0.0,72,-99.99,,,-99.99,,2013-05-27 09:33:00,
2013-05-27 05:42:00,76.0,66.0,30.08,North,0,0.0,0.0,72,-99.99,,,-99.99,,2013-05-27 09:42:00,
2013-05-27 05:53:00,77.0,67.0,30.08,North,0,0.0,0.0,72,-99.99,,,-99.99,,2013-05-27 09:53:00,
2013-05-27 06:02:00,77.0,69.0,30.08,North,0,0.0,0.0,76,-99.99,,,-99.99,,2013-05-27 10:02:00,
2013-05-27 06:12:00,77.0,69.0,30.08,North,0,0.0,0.0,76,-99.99,,,-99.99,,2013-05-27 10:12:00,
2013-05-27 06:22:00,76.0,67.0,30.08,North,0,0.0,0.0,75,-99.99,,,-99.99,,2013-05-27 10:22:00,
2013-05-27 06:32:00,77.0,68.0,30.09,North,0,0.0,0.0,73,-99.99,,,-99.99,,2013-05-27 10:32:00,
2013-05-27 06:42:00,77.0,68.0,30.09,North,0,0.0,0.0,73,-99.99,,,-99.99,,2013-05-27 10:42:00,
2013-05-27 06:52:00,76.0,65.0,30.09,North,0,0.0,0.0,69,-99.99,,,-99.99,,2013-05-27 10:52:00,
2013-05-27 07:02:00,76.0,66.0,30.09,North,0,0.0,0.0,72,-99.99,,,-99.99,,2013-05-27 11:02:00,
2013-05-27 07:11:00,76.0,66.0,30.09,North,0,0.0,0.0,72,-99.99,,,-99.99,,2013-05-27 11:11:00,
2013-05-27 07:22:00,77.0,67.0,30.09,North,0,0.0,0.0,72,-99.99,,,-99.99,,2013-05-27 11:22:00,
2013-05-27 07:32:00,77.0,67.0,30.09,North,0,0.0,0.0,71,-99.99,,,-99.99,,2013-05-27 11:32:00,
2013-05-27 07:42:00,77.0,67.0,30.09,North,0,0.0,0.0,71,-99.99,,,-99.99,,2013-05-27 11:42:00,
2013-05-27 07:52:00,77.0,67.0,30.10,North,0,0.0,0.0,72,-99.99,,,-99.99,,2013-05-27 11:52:00,
2013-05-27 08:01:00,77.0,68.0,30.10,North,0,0.0,0.0,73,-99.99,,,-99.99,,2013-05-27 12:01:00,
2013-05-27 08:11:00,77.0,68.0,30.10,North,0,0.0,0.0,73,-99.99,,,-99.99,,2013-05-27 12:11:00,
2013-05-27 08:22:00,77.0,68.0,30.11,North,0,0.0,0.0,74,-99.99,,,-99.99,,2013-05-27 12:22:00,
2013-05-27 08:32:00,77.0,68.0,30.11,North,0,0.0,0.0,75,-99.99,,,-99.99,,2013-05-27 12:32:00,
2013-05-27 08:42:00,77.0,68.0,30.11,North,0,0.0,0.0,75,-99.99,,,-99.99,,2013-05-27 12:42:00,
2013-05-27 08:52:00,77.0,68.0,30.11,North,0,0.0,0.0,74,-99.99,,,-99.99,,2013-05-27 12:52:00,
2013-05-27 09:01:00,77.0,68.0,30.11,North,0,0.0,0.0,74,-99.99,,,-99.99,,2013-05-27 13:01:00,
2013-05-27 09:11:00,77.0,68.0,30.11,North,0,0.0,0.0,74,-99.99,,,-99.99,,2013-05-27 13:11:00,
2013-05-27 09:22:00,77.0,69.0,30.11,North,0,0.0,0.0,77,-99.99,,,-99.99,,2013-05-27 13:22:00,
2013-05-27 09:32:00,77.0,68.0,30.11,North,0,0.0,0.0,75,-99.99,,,-99.99,,2013-05-27 13:32:00,
2013-05-27 09:42:00,77.0,68.0,30.11,North,0,0.0,0.0,75,-99.99,,,-99.99,,2013-05-27 13:42:00,
2013-05-27 09:53:00,77.0,68.0,30.11,North,0,0.0,0.0,75,-99.99,,,-99.99,,2013-05-27 13:53:00,
2013-05-27 10:02:00,77.0,68.0,30.11,North,0,0.0,0.0,75,-99.99,,,-99.99,,2013-05-27 14:02:00,
2013-05-27 10:11:00,77.0,68.0,30.11,North,0,0.0,0.0,75,-99.99,,,-99.99,,2013-05-27 14:11:00,
2013-05-27 10:22:00,78.0,69.0,30.12,North,0,0.0,0.0,74,-99.99,,,-99.99,,2013-05-27 14:22:00,
2013-05-27 10:32:00,77.0,68.0,30.12,North,0,0.0,0.0,74,-99.99,,,-99.99,,2013-05-27 14:32:00,
2013-05-27 10:42:00,77.0,68.0,30.12,North,0,0.0,0.0,74,-99.99,,,-99.99,,2013-05-27 14:42:00,
2013-05-27 10:52:00,78.0,69.0,30.12,North,0,0.0,0.0,74,-99.99,,,-99.99,,2013-05-27 14:52:00,
2013-05-27 11:01:00,78.0,69.0,30.12,North,0,0.0,0.0,73,-99.99,,,-99.99,,2013-05-27 15:01:00,
2013-05-27 11:11:00,78.0,69.0,30.13,North,0,0.0,0.0,74,-99.99,,,-99.99,,2013-05-27 15:11:00,
2013-05-27 11:21:00,78.0,69.0,30.13,North,0,0.0,0.0,74,-99.99,,,-99.99,,2013-05-27 15:21:00,
2013-05-27 11:33:00,78.0,68.0,30.13,North,0,0.0,0.0,71,-99.99,,,-99.99,,2013-05-27 15:33:00,
2013-05-27 11:43:00,78.0,69.0,30.13,North,0,0.0,0.0,73,-99.99,,,-99.99,,2013-05-27 15:43:00,
2013-05-27 11:53:00,78.0,69.0,30.13,North,0,0.0,0.0,73,-99.99,,,-99.99,,2013-05-27 15:53:00,
2013-05-27 12:03:00,78.0,69.0,30.14,North,0,0.0,0.0,73,-99.99,,,-99.99,,2013-05-27 16:03:00,
2013-05-27 12:12:00,78.0,69.0,30.14,North,0,0.0,0.0,73,-99.99,,,-99.99,,2013-05-27 16:12:00,
2013-05-27 12:23:00,78.0,68.0,30.13,North,0,0.0,0.0,71,-99.99,,,-99.99,,2013-05-27 16:23:00,
2013-05-27 12:33:00,79.0,70.0,30.13,North,0,0.0,0.0,74,-99.99,,,-99.99,,2013-05-27 16:33:00,
2013-05-27 12:42:00,79.0,70.0,30.13,North,0,0.0,0.0,74,-99.99,,,-99.99,,2013-05-27 16:42:00,
2013-05-27 12:53:00,81.0,70.0,30.13,North,0,0.0,0.0,70,-99.99,,,-99.99,,2013-05-27 16:53:00,
2013-05-27 13:02:00,79.0,69.0,30.13,North,0,0.0,0.0,72,-99.99,,,-99.99,,2013-05-27 17:02:00,
2013-05-27 13:12:00,78.0,68.0,30.13,North,0,0.0,0.0,72,-99.99,,,-99.99,,2013-05-27 17:12:00,
2013-05-27 13:22:00,78.0,68.0,30.13,North,0,0.0,0.0,72,-99.99,,,-99.99,,2013-05-27 17:22:00,
2013-05-27 13:32:00,81.0,71.0,30.13,North,0,0.0,0.0,71,-99.99,,,-99.99,,2013-05-27 17:32:00,
2013-05-27 13:43:00,81.0,71.0,30.13,North,0,0.0,0.0,71,-99.99,,,-99.99,,2013-05-27 17:43:00,
2013-05-27 13:52:00,80.0,68.0,30.13,North,0,0.0,0.0,68,-99.99,,,-99.99,,2013-05-27 17:52:00,
2013-05-27 14:02:00,79.0,69.0,30.13,North,0,0.0,0.0,71,-99.99,,,-99.99,,2013-05-27 18:02:00,
2013-05-27 14:11:00,79.0,69.0,30.13,North,0,0.0,0.0,71,-99.99,,,-99.99,,2013-05-27 18:11:00,
2013-05-27 14:22:00,81.0,70.0,30.13,North,0,0.0,0.0,69,-99.99,,,-99.99,,2013-05-27 18:22:00,
2013-05-27 14:32:00,82.0,70.0,30.13,North,0,0.0,0.0,68,-99.99,,,-99.99,,2013-05-27 18:32:00,
2013-05-27 14:42:00,82.0,70.0,30.13,North,0,0.0,0.0,68,-99.99,,,-99.99,,2013-05-27 18:42:00,
2013-05-27 14:52:00,83.0,70.0,30.12,North,0,0.0,0.0,66,-99.99,,,-99.99,,2013-05-27 18:52:00,
2013-05-27 15:01:00,82.0,70.0,30.11,North,0,0.0,0.0,67,-99.99,,,-99.99,,2013-05-27 19:01:00,
2013-05-27 15:11:00,82.0,70.0,30.11,North,0,0.0,0.0,67,-99.99,,,-99.99,,2013-05-27 19:11:00,
2013-05-27 15:22:00,81.0,71.0,30.11,North,0,0.0,0.0,71,-99.99,,,-99.99,,2013-05-27 19:22:00,
2013-05-27 15:32:00,80.0,70.0,30.10,North,0,0.0,0.0,71,-99.99,,,-99.99,,2013-05-27 19:32:00,
2013-05-27 15:42:00,80.0,70.0,30.10,North,0,0.0,0.0,71,-99.99,,,-99.99,,2013-05-27 19:42:00,
2013-05-27 15:52:00,81.0,69.0,30.09,North,0,0.0,0.0,68,-99.99,,,-99.99,,2013-05-27 19:52:00,
2013-05-27 16:01:00,81.0,70.0,30.09,North,359,4.0,5.0,69,-99.99,,,-99.99,,2013-05-27 20:01:00,
2013-05-27 16:11:00,81.0,70.0,30.09,North,359,4.0,5.0,69,-99.99,,,-99.99,,2013-05-27 20:11:00,
2013-05-27 16:22:00,82.0,70.0,30.09,North,0,0.0,0.0,67,-99.99,,,-99.99,,2013-05-27 20:22:00,
2013-05-27 16:32:00,82.0,70.0,30.08,North,0,0.0,0.0,67,-99.99,,,-99.99,,2013-05-27 20:32:00,
2013-05-27 16:42:00,82.0,71.0,30.08,North,0,0.0,0.0,69,-99.99,,,-99.99,,2013-05-27 20:42:00,
2013-05-27 16:53:00,82.0,71.0,30.08,North,0,0.0,0.0,69,-99.99,,,-99.99,,2013-05-27 20:53:00,
2013-05-27 17:01:00,80.0,70.0,30.07,North,0,0.0,0.0,72,-99.99,,,-99.99,,2013-05-27 21:01:00,
2013-05-27 17:12:00,81.0,71.0,30.06,North,0,0.0,0.0,71,-99.99,,,-99.99,,2013-05-27 21:12:00,
2013-05-27 17:21:00,81.0,71.0,30.06,North,0,0.0,0.0,71,-99.99,,,-99.99,,2013-05-27 21:21:00,
2013-05-27 17:33:00,81.0,70.0,30.06,North,0,0.0,0.0,70,-99.99,,,-99.99,,2013-05-27 21:33:00,
2013-05-27 17:43:00,78.0,69.0,30.06,North,0,0.0,0.0,75,-99.99,,,-99.99,,2013-05-27 21:43:00,
2013-05-27 17:53:00,78.0,69.0,30.06,North,0,0.0,0.0,75,-99.99,,,-99.99,,2013-05-27 21:53:00,
2013-05-27 18:02:00,78.0,69.0,30.06,North,0,0.0,0.0,75,-99.99,,,-99.99,,2013-05-27 22:02:00,
2013-05-27 18:12:00,78.0,70.0,30.06,North,0,0.0,0.0,76,-99.99,,,-99.99,,2013-05-27 22:12:00,
2013-05-27 18:22:00,78.0,70.0,30.06,North,0,0.0,0.0,76,-99.99,,,-99.99,,2013-05-27 22:22:00,
2013-05-27 18:33:00,78.0,71.0,30.06,North,0,0.0,0.0,78,-99.99,,,-99.99,,2013-05-27 22:33:00,
2013-05-27 18:42:00,78.0,71.0,30.06,North,0,0.0,0.0,78,-99.99,,,-99.99,,2013-05-27 22:42:00,
2013-05-27 18:53:00,78.0,71.0,30.06,North,0,0.0,0.0,78,-99.99,,,-99.99,,2013-05-27 22:53:00,
2013-05-27 19:02:00,78.0,71.0,30.06,North,0,0.0,0.0,78,-99.99,,,-99.99,,2013-05-27 23:02:00,
2013-05-27 19:12:00,78.0,70.0,30.06,North,357,2.0,5.0,76,-99.99,,,-99.99,,2013-05-27 23:12:00,
2013-05-27 19:22:00,78.0,70.0,30.06,North,357,2.0,5.0,76,-99.99,,,-99.99,,2013-05-27 23:22:00,
2013-05-27 19:32:00,78.0,71.0,30.06,North,0,0.0,0.0,79,-99.99,,,-99.99,,2013-05-27 23:32:00,
2013-05-27 19:42:00,78.0,71.0,30.06,North,0,0.0,0.0,79,-99.99,,,-99.99,,2013-05-27 23:42:00,
2013-05-27 19:52:00,77.0,70.0,30.07,North,0,0.0,0.0,79,-99.99,,,-99.99,,2013-05-27 23:52:00,
2013-05-27 20:01:00,77.0,70.0,30.07,North,0,0.0,0.0,79,-99.99,,,-99.99,,2013-05-28 00:01:00,
2013-05-27 20:11:00,77.0,70.0,30.07,North,0,0.0,0.0,79,-99.99,,,-99.99,,2013-05-28 00:11:00,
2013-05-27 20:22:00,77.0,70.0,30.07,North,356,1.0,5.0,79,-99.99,,,-99.99,,2013-05-28 00:22:00,
2013-05-27 20:32:00,77.0,70.0,30.07,North,0,0.0,0.0,78,-99.99,,,-99.99,,2013-05-28 00:32:00,
2013-05-27 20:42:00,77.0,70.0,30.07,North,0,0.0,0.0,78,-99.99,,,-99.99,,2013-05-28 00:42:00,
2013-05-27 20:52:00,77.0,70.0,30.07,North,0,0.0,0.0,79,-99.99,,,-99.99,,2013-05-28 00:52:00,
2013-05-27 21:01:00,78.0,71.0,30.07,North,0,0.0,0.0,80,-99.99,,,-99.99,,2013-05-28 01:01:00,
2013-05-27 21:11:00,78.0,71.0,30.07,North,0,0.0,0.0,80,-99.99,,,-99.99,,2013-05-28 01:11:00,
2013-05-27 21:22:00,77.0,70.0,30.07,North,356,3.0,5.0,80,-99.99,,,-99.99,,2013-05-28 01:22:00,
2013-05-27 21:32:00,77.0,70.0,30.07,North,0,0.0,0.0,80,-99.99,,,-99.99,,2013-05-28 01:32:00,
2013-05-27 21:42:00,77.0,70.0,30.07,North,0,0.0,0.0,80,-99.99,,,-99.99,,2013-05-28 01:42:00,
2013-05-27 21:52:00,77.0,70.0,30.07,North,357,2.0,5.0,78,-99.99,,,-99.99,,2013-05-28 01:52:00,
2013-05-27 22:02:00,77.0,71.0,30.08,North,0,0.0,0.0,81,-99.99,,,-99.99,,2013-05-28 02:02:00,
2013-05-27 22:11:00,77.0,71.0,30.08,North,0,0.0,0.0,81,-99.99,,,-99.99,,2013-05-28 02:11:00,
2013-05-27 22:22:00,77.0,70.0,30.08,North,0,0.0,0.0,79,-99.99,,,-99.99,,2013-05-28 02:22:00,
2013-05-27 22:32:00,77.0,70.0,30.09,North,0,0.0,0.0,79,-99.99,,,-99.99,,2013-05-28 02:32:00,
2013-05-27 22:42:00,77.0,70.0,30.09,North,0,0.0,0.0,79,-99.99,,,-99.99,,2013-05-28 02:42:00,
2013-05-27 22:52:00,77.0,70.0,30.09,North,0,0.0,0.0,80,-99.99,,,-99.99,,2013-05-28 02:52:00,
2013-05-27 23:01:00,77.0,71.0,30.10,North,0,0.0,0.0,81,-99.99,,,-99.99,,2013-05-28 03:01:00,
2013-05-27 23:11:00,77.0,71.0,30.10,North,0,0.0,0.0,81,-99.99,,,-99.99,,2013-05-28 03:11:00,
2013-05-27 23:22:00,77.0,70.0,30.09,North,0,0.0,0.0,80,-99.99,,,-99.99,,2013-05-28 03:22:00,
2013-05-27 23:33:00,77.0,70.0,30.09,North,0,0.0,0.0,79,-99.99,,,-99.99,,2013-05-28 03:33:00,
2013-05-27 23:43:00,77.0,70.0,30.09,North,0,0.0,0.0,79,-99.99,,,-99.99,,2013-05-28 03:43:00,
2013-05-27 23:53:00,77.0,70.0,3.01,North,0,0.0,0.0,79,-99.99,,,-99.99,,2013-05-28 03:53:00,